• In Deutschland
  • Länderverzeichnis
  • Für 7 Tage
  • Wassertemperatur
  • Satellitenkarten
  • Wetterkarte
  • Widgets
  • user-avatar
    Anmelden

    Stündliche Wetter Michurins'ke

    Heute, 15 August, Mittwoch

    Zeit Temperatur Niederschläge Wind Luftdruck Luftfeuchtigkeit
    00:00 +21°C° 0 mm 2 m/S 729 mmHg 50%
    01:00 +21°C° 0 mm 2 m/S 729 mmHg 51%
    02:00 +20°C° 0 mm 2 m/S 729 mmHg 53%
    03:00 +20°C° 0 mm 3 m/S 729 mmHg 55%
    04:00 +20°C° 0 mm 3 m/S 729 mmHg 57%
    05:00 +20°C° 0 mm 3 m/S 729 mmHg 59%
    06:00 +22°C° 0 mm 3 m/S 729 mmHg 54%
    07:00 +26°C° 0 mm 4 m/S 729 mmHg 49%
    08:00 +28°C° 0 mm 4 m/S 729 mmHg 43%
    09:00 +30°C° 0 mm 5 m/S 729 mmHg 39%
    10:00 +32°C° 0 mm 5 m/S 729 mmHg 34%
    11:00 +33°C° 0 mm 6 m/S 729 mmHg 30%
    12:00 +33°C° 0 mm 6 m/S 729 mmHg 29%
    13:00 +33°C° 0 mm 5 m/S 729 mmHg 29%
    14:00 +34°C° 0 mm 5 m/S 729 mmHg 29%
    15:00 +33°C° 0 mm 5 m/S 729 mmHg 30%
    16:00 +32°C° 0 mm 4 m/S 729 mmHg 32%
    17:00 +30°C° 0 mm 4 m/S 729 mmHg 34%
    18:00 +28°C° 0 mm 4 m/S 728 mmHg 41%
    19:00 +26°C° 0 mm 4 m/S 728 mmHg 47%
    20:00 +24°C° 0 mm 3 m/S 728 mmHg 53%
    21:00 +22°C° 0 mm 3 m/S 728 mmHg 53%
    22:00 +22°C° 0 mm 3 m/S 728 mmHg 54%
    23:00 +22°C° 0 mm 3 m/S 728 mmHg 54%

    Morgen, 16 August, Donnerstag

    Zeit Temperatur Niederschläge Wind Luftdruck Luftfeuchtigkeit
    00:00 +22°C° 0 mm 3 m/S 728 mmHg 56%
    01:00 +21°C° 0 mm 3 m/S 728 mmHg 58%
    02:00 +21°C° 0 mm 3 m/S 727 mmHg 59%
    03:00 +21°C° 0 mm 3 m/S 727 mmHg 60%
    04:00 +21°C° 0 mm 3 m/S 727 mmHg 60%
    05:00 +21°C° 0 mm 3 m/S 727 mmHg 61%
    06:00 +23°C° 0 mm 4 m/S 727 mmHg 54%
    07:00 +26°C° 0 mm 5 m/S 728 mmHg 46%
    08:00 +29°C° 0 mm 7 m/S 728 mmHg 39%
    09:00 +30°C° 0 mm 7 m/S 728 mmHg 35%
    10:00 +32°C° 0 mm 8 m/S 728 mmHg 32%
    11:00 +33°C° 0 mm 8 m/S 728 mmHg 29%
    12:00 +33°C° 0 mm 8 m/S 728 mmHg 29%
    13:00 +33°C° 0 mm 7 m/S 728 mmHg 29%
    14:00 +33°C° 0 mm 7 m/S 728 mmHg 30%
    15:00 +32°C° 0 mm 6 m/S 728 mmHg 32%
    16:00 +30°C° 0 mm 6 m/S 727 mmHg 34%
    17:00 +30°C° 0 mm 5 m/S 727 mmHg 37%
    18:00 +28°C° 0 mm 5 m/S 727 mmHg 42%
    19:00 +26°C° 0 mm 4 m/S 727 mmHg 47%
    20:00 +23°C° 0 mm 4 m/S 727 mmHg 52%
    21:00 +23°C° 0 mm 4 m/S 727 mmHg 54%
    22:00 +22°C° 0 mm 4 m/S 727 mmHg 56%
    23:00 +22°C° 0 mm 4 m/S 727 mmHg 58%

    übermorgen, 17 August, Freitag

    Zeit Temperatur Niederschläge Wind Luftdruck Luftfeuchtigkeit
    00:00 +22°C° 0 mm 3 m/S 727 mmHg 60%
    01:00 +22°C° 0 mm 3 m/S 727 mmHg 62%
    02:00 +22°C° 0 mm 3 m/S 727 mmHg 64%
    03:00 +21°C° 0 mm 3 m/S 727 mmHg 65%
    04:00 +21°C° 0 mm 3 m/S 727 mmHg 67%
    05:00 +21°C° 0 mm 3 m/S 727 mmHg 69%
    06:00 +23°C° 0 mm 4 m/S 727 mmHg 61%
    07:00 +26°C° 0 mm 4 m/S 727 mmHg 54%
    08:00 +28°C° 0 mm 5 m/S 728 mmHg 47%
    09:00 +29°C° 0 mm 5 m/S 728 mmHg 42%
    10:00 +32°C° 0 mm 6 m/S 728 mmHg 38%
    11:00 +33°C° 0 mm 6 m/S 728 mmHg 33%
    12:00 +33°C° 0 mm 6 m/S 728 mmHg 33%
    13:00 +32°C° 0 mm 6 m/S 728 mmHg 33%
    14:00 +32°C° 0 mm 6 m/S 727 mmHg 32%
    15:00 +32°C° 0 mm 5 m/S 727 mmHg 34%
    16:00 +30°C° 0 mm 5 m/S 727 mmHg 36%
    17:00 +29°C° 0 mm 5 m/S 727 mmHg 38%
    18:00 +28°C° 0 mm 4 m/S 727 mmHg 42%
    19:00 +26°C° 0 mm 4 m/S 727 mmHg 46%
    20:00 +24°C° 0 mm 3 m/S 727 mmHg 50%
    21:00 +24°C° 0,1 mm 3 m/S 727 mmHg 52%
    22:00 +24°C° 0,1 mm 3 m/S 727 mmHg 53%
    23:00 +24°C° 0,1 mm 3 m/S 727 mmHg 55%

    18 August, Samstag

    Zeit Temperatur Niederschläge Wind Luftdruck Luftfeuchtigkeit
    00:00 +22°C° 0,2 mm 3 m/S 727 mmHg 56%
    01:00 +22°C° 0,2 mm 4 m/S 727 mmHg 58%
    02:00 +22°C° 0,2 mm 4 m/S 727 mmHg 60%
    03:00 +22°C° 0,1 mm 4 m/S 727 mmHg 62%
    04:00 +21°C° 0,1 mm 4 m/S 727 mmHg 64%
    05:00 +21°C° 0,1 mm 4 m/S 727 mmHg 66%
    06:00 +23°C° 0 mm 4 m/S 727 mmHg 56%
    07:00 +26°C° 0 mm 5 m/S 728 mmHg 47%
    08:00 +29°C° 0 mm 5 m/S 728 mmHg 37%
    09:00 +30°C° 0 mm 6 m/S 728 mmHg 33%
    10:00 +32°C° 0 mm 7 m/S 728 mmHg 28%
    11:00 +34°C° 0 mm 7 m/S 729 mmHg 24%
    12:00 +34°C° 0 mm 7 m/S 729 mmHg 24%
    13:00 +34°C° 0 mm 7 m/S 728 mmHg 24%
    14:00 +34°C° 0 mm 7 m/S 728 mmHg 24%
    15:00 +33°C° 0 mm 7 m/S 728 mmHg 25%
    16:00 +32°C° 0 mm 6 m/S 728 mmHg 27%
    17:00 +30°C° 0 mm 6 m/S 728 mmHg 28%
    18:00 +28°C° 0 mm 5 m/S 729 mmHg 34%
    19:00 +26°C° 0 mm 5 m/S 729 mmHg 39%
    20:00 +23°C° 0 mm 4 m/S 729 mmHg 44%
    21:00 +23°C° 0 mm 4 m/S 729 mmHg 47%
    22:00 +23°C° 0 mm 4 m/S 729 mmHg 49%
    23:00 +22°C° 0 mm 4 m/S 729 mmHg 51%

    19 August, Sonntag

    Zeit Temperatur Niederschläge Wind Luftdruck Luftfeuchtigkeit
    00:00 +22°C° 0 mm 5 m/S 729 mmHg 55%
    01:00 +22°C° 0 mm 5 m/S 729 mmHg 59%
    02:00 +22°C° 0 mm 5 m/S 729 mmHg 62%
    03:00 +21°C° 0 mm 5 m/S 729 mmHg 65%
    04:00 +21°C° 0 mm 4 m/S 729 mmHg 68%
    05:00 +21°C° 0 mm 4 m/S 729 mmHg 70%
    06:00 +23°C° 0 mm 5 m/S 729 mmHg 64%
    07:00 +25°C° 0 mm 5 m/S 729 mmHg 57%
    08:00 +27°C° 0 mm 6 m/S 730 mmHg 50%
    09:00 +28°C° 0 mm 6 m/S 730 mmHg 46%
    10:00 +29°C° 0 mm 7 m/S 730 mmHg 42%
    11:00 +30°C° 0 mm 7 m/S 730 mmHg 39%
    12:00 +30°C° 0 mm 7 m/S 730 mmHg 38%
    13:00 +30°C° 0 mm 7 m/S 730 mmHg 37%
    14:00 +29°C° 0 mm 7 m/S 730 mmHg 36%
    15:00 +29°C° 0 mm 7 m/S 729 mmHg 36%
    16:00 +28°C° 0 mm 6 m/S 729 mmHg 36%
    17:00 +28°C° 0 mm 6 m/S 729 mmHg 36%
    18:00 +25°C° 0 mm 5 m/S 729 mmHg 42%
    19:00 +22°C° 0 mm 4 m/S 729 mmHg 48%
    20:00 +20°C° 0 mm 4 m/S 729 mmHg 55%
    21:00 +20°C° 0 mm 4 m/S 729 mmHg 58%
    22:00 +19°C° 0 mm 4 m/S 729 mmHg 61%
    23:00 +19°C° 0 mm 4 m/S 729 mmHg 64%

    20 August, Montag

    Zeit Temperatur Niederschläge Wind Luftdruck Luftfeuchtigkeit
    00:00 +19°C° 0 mm 4 m/S 729 mmHg 65%
    01:00 +19°C° 0 mm 4 m/S 729 mmHg 66%
    02:00 +19°C° 0 mm 4 m/S 729 mmHg 67%
    03:00 +18°C° 0 mm 3 m/S 729 mmHg 69%
    04:00 +18°C° 0 mm 3 m/S 729 mmHg 71%
    05:00 +18°C° 0 mm 3 m/S 729 mmHg 73%
    06:00 +20°C° 0 mm 3 m/S 729 mmHg 63%
    07:00 +23°C° 0 mm 4 m/S 730 mmHg 53%
    08:00 +26°C° 0 mm 4 m/S 730 mmHg 43%
    09:00 +27°C° 0 mm 4 m/S 730 mmHg 38%
    10:00 +28°C° 0 mm 5 m/S 731 mmHg 33%
    11:00 +30°C° 0 mm 5 m/S 731 mmHg 28%
    12:00 +30°C° 0 mm 5 m/S 731 mmHg 27%
    13:00 +30°C° 0 mm 5 m/S 731 mmHg 26%
    14:00 +30°C° 0 mm 5 m/S 731 mmHg 26%
    15:00 +29°C° 0 mm 5 m/S 731 mmHg 27%
    16:00 +28°C° 0 mm 5 m/S 731 mmHg 28%
    17:00 +27°C° 0 mm 4 m/S 731 mmHg 29%
    18:00 +25°C° 0 mm 4 m/S 731 mmHg 33%
    19:00 +22°C° 0 mm 3 m/S 731 mmHg 38%
    20:00 +19°C° 0 mm 2 m/S 731 mmHg 42%
    21:00 +19°C° 0 mm 2 m/S 731 mmHg 43%
    22:00 +18°C° 0 mm 2 m/S 731 mmHg 43%
    23:00 +18°C° 0 mm 2 m/S 731 mmHg 44%
    Mehr zeigen